User: anonymous   Login
Location: Ash Swamp
(41.5170°N, 74.6157°W)
Time: 16:18:54
(UTC+00:00)
Language:

Cosmos 1459 Rocket - Orbit

View from above orbital plane
View from above orbital plane
View from above satellite
View from above satellite

Ground track
Ground track

The orbit data is extracted from the following two-line orbital elements,

1 14059U 83042B   20270.70761234 +.00000124 +00000-0 +10600-3 0  9994
2 14059 082.9690 252.9875 0043558 141.7325 218.6939 13.78699749880491
Epoch (UTC): 26 September 2020 16:58:57
Eccentricity: 0.0043558
inclination: 82.9690°
perigee height: 936 km
apogee height: 1000 km
right ascension of ascending node: 252.9875°
argument of perigee: 141.7325°
revolutions per day: 13.78699749
mean anomaly at epoch: 218.6939°
orbit number at epoch: 88049

The dashed part of the orbit path shows where the satellite is in the earth's shadow,  

DLR